STARLINK-5691 (55478 NORAD) Tracking and Keplerian Element Data

This shows tracking and keplerian element data for the satellite.

Feedback or suggestion? Click here.




ElementValue
Catalog55478
NameSTARLINK-5691
Epoch Orbit831
Epoch Day85.15610866
Epoch Year2023
RAAN76.1365
Inclination43.0014
Eccentricity0.0001602
Argument of Perigee253.1812
Mean Anonmoly106.888
Mean Motion15.71342947
Decay Rate-1.936E-05
L11 55478U 23015AF 23085.15610866 -.00001936 00000+0 -11326-4 0 9998
L22 55478 43.0014 76.1365 0001602 253.1812 106.8880 15.71342947 8318



Live tracking and technical data element details for STARLINK-5691 (NORAD 55478). STARLINK-5691 can be tracked NOW for your location showing map with azimuth and elevation plus other details from your city location.







IsCatalogInMostPopularTable: catalog: 55478, numindb: -1

Insert: records affected: 1


GetName: 55478 STARLINK-5691

Hit Count: inserted at: Tue, 28 Mar 2023 02:14:00 GMT